Home   Weather   Vientiane   Past weeks
Flag for Laos

Past Weather in Vientiane, Laos — Yesterday and Last 2 Weeks

Now
91 °F

Scattered clouds.


Feels Like: 105 °F
Forecast: 89 / 78 °F
Wind: 9 mph from South

Location: Vientiane Airport

Current Time: Jun 27, 2019 at 5:27:23 pm

Latest Report: Jun 27, 2019 at 4:30 pm


Visibility: N/A

Pressure: 29.53 "Hg

Humidity: 63%

Dew Point: 77 °F

Location of VientianeLocation

Past Weather in Vientiane — Graph

°F

Vientiane Temperature Yesterday

Maximum temperature yesterday: 91 °F (at 5:30 pm)
Minimum temperature yesterday: 81 °F (at 6:00 am)
Average temperature yesterday: 86 °F

High & Low Weather Summary for the Past Weeks

 TemperatureHumidityPressure
High99 °F (Jun 22, 2:00 pm)100% (Jun 12, 6:30 pm)29.80 "Hg (Jun 12, 6:30 pm)
Low75 °F (Jun 13, 8:00 pm)47% (Jun 21, 5:30 pm)29.53 "Hg (Jun 27, 4:00 pm)
Average86 °F80%29.69 "Hg
* Reported Jun 12 4:00 pm — Jun 27 4:00 pm, Vientiane. Weather by CustomWeather, © 2019

Note: Actual official high and low records may vary slightly from our data, if they occured in-between our weather recording intervals... More about our weather records

Advertising

Vientiane Weather History for the Previous 24 Hours

Scroll right to see more
 ConditionsComfort  
Time TempWeatherWind HumidityBarometerVisibility
4:00 pm
Thu, Jun 27
93 °FScattered clouds.7 mph59%29.53 "HgN/A
3:30 pm93 °FScattered clouds.5 mph63%29.56 "HgN/A
3:00 pm93 °FScattered clouds.9 mph59%29.56 "HgN/A
2:30 pm93 °FScattered clouds.9 mph59%29.56 "HgN/A
2:00 pm93 °FScattered clouds.9 mph53%29.59 "HgN/A
1:30 pm91 °FBroken clouds.9 mph63%29.59 "HgN/A
1:00 pm90 °FBroken clouds.9 mph63%29.62 "HgN/A
12:30 pm90 °FPartly sunny.7 mph67%29.62 "HgN/A
12:00 pm88 °FPartly sunny.5 mph62%29.65 "HgN/A
11:30 am88 °FBroken clouds.7 mph70%29.65 "HgN/A
11:00 am86 °FBroken clouds.7 mph70%29.68 "HgN/A
10:30 am86 °FPartly sunny.5 mph79%29.68 "HgN/A
10:00 am86 °FPartly sunny.2 mph75%29.68 "HgN/A
9:30 am84 °FPartly sunny.7 mph79%29.68 "Hg5 mi
9:00 am84 °FPartly sunny.5 mph84%29.68 "Hg5 mi
8:30 am82 °FBroken clouds.5 mph94%29.68 "Hg4 mi
8:00 am81 °FBroken clouds.2 mph94%29.68 "Hg4 mi
7:30 am81 °FPartly sunny.5 mph94%29.68 "Hg4 mi
7:00 am81 °FFog.2 mph100%29.68 "Hg3 mi
6:30 am81 °FFog.5 mph100%29.65 "Hg3 mi
6:00 am81 °FFog.2 mph100%29.65 "Hg3 mi
11:30 pm
Wed, Jun 26
82 °FFog.2 mph100%29.68 "Hg2 mi
11:00 pm82 °FFog.2 mph100%29.68 "Hg2 mi
10:30 pm82 °FFog.No wind100%29.68 "Hg2 mi
10:00 pm82 °FFog.2 mph100%29.68 "Hg2 mi
9:00 pm82 °FFog.5 mph94%29.65 "Hg2 mi
8:30 pm82 °FFog.2 mph94%29.65 "Hg2 mi
8:00 pm84 °FFog.2 mph89%29.65 "Hg2 mi
7:30 pm84 °FFog.2 mph89%29.62 "Hg3 mi
7:00 pm86 °FFog.2 mph79%29.62 "Hg3 mi
6:30 pm88 °FScattered clouds.No wind84%29.59 "Hg4 mi
6:00 pm91 °FBroken clouds.No wind63%29.62 "Hg4 mi
5:30 pm91 °FBroken clouds.No wind67%29.62 "Hg5 mi
5:00 pm90 °FBroken clouds.No wind71%29.59 "Hg5 mi
Weather by CustomWeather, © 2019

See weather overview